| time (UTC) | temp F | wind direction | speed knots | gust knots | rain 1hr in | rain 24hr in | rain mn in | humidity % | barometer mb |
| 20260503021602 | 46 | 0 | 0.0 | 1.7 | 0.00 | 0.00 | 0.00 | 54 | 1016.1 |
| 20260503020101 | 47 | 0 | 0.0 | 1.7 | 0.00 | 0.00 | 0.00 | 52 | 1015.9 |
| 20260503014601 | 48 | 0 | 0.0 | 2.6 | 0.00 | 0.00 | 0.00 | 51 | 1015.8 |
| 20260503013058 | 48 | 0 | 0.9 | 5.2 | 0.00 | 0.00 | 0.00 | 50 | 1015.6 |
| 20260503011602 | 49 | 98 | 0.9 | 2.6 | 0.00 | 0.00 | 0.00 | 51 | 1015.5 |
| 20260503010103 | 49 | 67 | 0.0 | 2.6 | 0.00 | 0.00 | 0.00 | 51 | 1015.3 |
| 20260503004610 | 50 | 155 | 0.0 | 1.7 | 0.00 | 0.00 | 0.00 | 53 | 1015.1 |
| 20260503003109 | 50 | 0 | 0.0 | 2.6 | 0.00 | 0.00 | 0.00 | 50 | 1014.9 |
| 20260503001626 | 51 | 0 | 0.0 | 2.6 | 0.00 | 0.00 | 0.00 | 48 | 1014.7 |
| 20260503000057 | 51 | 93 | 0.9 | 1.7 | 0.00 | 0.00 | 0.00 | 47 | 1014.6 |
| 20260502234558 | 51 | 93 | 0.0 | 1.7 | 0.00 | 0.00 | 0.00 | 49 | 1014.5 |
| 20260502233056 | 51 | 103 | 0.9 | 7.0 | 0.00 | 0.00 | 0.00 | 46 | 1014.4 |
| 20260502231555 | 52 | 132 | 0.9 | 3.5 | 0.00 | 0.00 | 0.00 | 48 | 1014.3 |
| 20260502230056 | 52 | 0 | 0.9 | 5.2 | 0.00 | 0.00 | 0.00 | 46 | 1014.3 |
| 20260502224557 | 52 | 0 | 0.0 | 3.5 | 0.00 | 0.00 | 0.00 | 49 | 1014.3 |
| 20260502223101 | 53 | 105 | 0.9 | 3.5 | 0.00 | 0.00 | 0.00 | 43 | 1014.3 |
| 20260502221558 | 53 | 0 | 0.0 | 6.1 | 0.00 | 0.00 | 0.00 | 45 | 1014.3 |
| 20260502220056 | 53 | 0 | 0.9 | 6.1 | 0.00 | 0.00 | 0.00 | 45 | 1014.2 |
| 20260502214555 | 53 | 69 | 0.9 | 7.0 | 0.00 | 0.00 | 0.00 | 44 | 1014.0 |
| 20260502213107 | 54 | 0 | 1.7 | 7.8 | 0.00 | 0.00 | 0.00 | 43 | 1014.1 |
| 20260502211557 | 55 | 61 | 0.0 | 4.3 | 0.00 | 0.00 | 0.00 | 45 | 1013.9 |
| 20260502210057 | 53 | 138 | 0.0 | 4.3 | 0.00 | 0.00 | 0.00 | 47 | 1014.1 |
| 20260502204604 | 52 | 0 | 0.9 | 6.1 | 0.00 | 0.00 | 0.00 | 47 | 1014.1 |
| 20260502203103 | 53 | 0 | 0.9 | 5.2 | 0.00 | 0.00 | 0.00 | 44 | 1014.2 |
| 20260502201559 | 55 | 94 | 0.9 | 6.1 | 0.00 | 0.00 | 0.00 | 44 | 1014.1 |
| 20260502200126 | 55 | 96 | 0.9 | 4.3 | 0.00 | 0.00 | 0.00 | 45 | 1014.2 |
| 20260502194609 | 53 | 0 | 0.9 | 7.0 | 0.00 | 0.00 | 0.00 | 48 | 1014.4 |
| 20260502193057 | 54 | 173 | 0.9 | 4.3 | 0.00 | 0.00 | 0.00 | 45 | 1014.5 |
| 20260502191610 | 54 | 90 | 0.9 | 3.5 | 0.00 | 0.00 | 0.00 | 47 | 1014.6 |
| 20260502190058 | 53 | 0 | 0.9 | 5.2 | 0.00 | 0.00 | 0.00 | 45 | 1014.8 |
| 20260502184600 | 53 | 109 | 0.9 | 5.2 | 0.00 | 0.00 | 0.00 | 43 | 1014.9 |
| 20260502183111 | 52 | 65 | 1.7 | 5.2 | 0.00 | 0.00 | 0.00 | 47 | 1015.0 |
| 20260502181556 | 53 | 146 | 0.9 | 3.5 | 0.00 | 0.00 | 0.00 | 46 | 1014.9 |
| 20260502163102 | 52 | 0 | 1.7 | 7.0 | 0.00 | 0.00 | 0.00 | 47 | 1015.5 |
| 20260502161603 | 51 | 0 | 0.9 | 7.8 | 0.00 | 0.00 | 0.00 | 50 | 1015.6 |
| 20260502160104 | 52 | 304 | 0.0 | 4.3 | 0.00 | 0.00 | 0.00 | 52 | 1015.6 |
| 20260502151610 | 54 | 128 | 0.9 | 3.5 | 0.00 | 0.00 | 0.00 | 51 | 1015.8 |
| 20260502150130 | 51 | 98 | 1.7 | 5.2 | 0.00 | 0.00 | 0.00 | 56 | 1015.9 |
| 20260502130107 | 42 | 308 | 0.0 | 1.7 | 0.00 | 0.00 | 0.00 | 90 | 1015.8 |
| 20260502123057 | 40 | 0 | 0.9 | 2.6 | 0.00 | 0.00 | 0.00 | 90 | 1015.5 |
| 20260502121602 | 38 | 0 | 0.0 | 0.0 | 0.00 | 0.00 | 0.00 | 90 | 1015.5 |
| 20260502120114 | 37 | 0 | 0.0 | 0.0 | 0.00 | 0.00 | 0.00 | 89 | 1015.6 |
| 20260502114615 | 37 | 0 | 0.0 | 0.0 | 0.00 | 0.00 | 0.00 | 89 | 1015.6 |
| 20260502113114 | 36 | 0 | 0.0 | 0.0 | 0.00 | 0.00 | 0.00 | 88 | 1015.6 |
| 20260502111605 | 36 | 0 | 0.0 | 0.0 | 0.00 | 0.00 | 0.00 | 88 | 1015.4 |
| 20260502110104 | 36 | 0 | 0.0 | 0.9 | 0.00 | 0.00 | 0.00 | 88 | 1015.5 |
| 20260502104557 | 36 | 0 | 0.0 | 0.0 | 0.00 | 0.00 | 0.00 | 88 | 1015.4 |
| 20260502103114 | 36 | 0 | 0.0 | 0.0 | 0.00 | 0.00 | 0.00 | 88 | 1015.0 |
| 20260502101608 | 36 | 0 | 0.0 | 0.0 | 0.00 | 0.00 | 0.00 | 88 | 1015.6 |
| 20260502090109 | 37 | 0 | 0.0 | 0.0 | 0.00 | 0.00 | 0.00 | 86 | 1015.8 |
| 20260502064557 | 40 | 0 | 0.0 | 0.9 | 0.00 | 0.00 | 0.00 | 83 | 1015.3 |
| 20260502063124 | 41 | 0 | 0.0 | 0.0 | 0.00 | 0.00 | 0.00 | 81 | 1015.5 |
| 20260502061558 | 41 | 0 | 0.0 | 0.0 | 0.00 | 0.00 | 0.00 | 79 | 1015.7 |
| 20260502060107 | 42 | 0 | 0.0 | 0.0 | 0.00 | 0.00 | 0.00 | 78 | 1015.9 |
| 20260502054617 | 43 | 0 | 0.0 | 0.0 | 0.00 | 0.00 | 0.00 | 77 | 1015.8 |
| 20260502053108 | 44 | 0 | 0.0 | 0.0 | 0.00 | 0.00 | 0.00 | 75 | 1016.0 |
| 20260502051558 | 45 | 0 | 0.0 | 0.0 | 0.00 | 0.00 | 0.00 | 73 | 1016.1 |
| 20260502050059 | 45 | 0 | 0.0 | 0.0 | 0.00 | 0.00 | 0.00 | 72 | 1016.1 |
| 20260502044557 | 46 | 0 | 0.0 | 0.0 | 0.00 | 0.00 | 0.00 | 71 | 1016.2 |
| 20260502043106 | 46 | 0 | 0.0 | 1.7 | 0.00 | 0.00 | 0.00 | 70 | 1016.1 |
| 20260502041556 | 47 | 0 | 0.0 | 0.0 | 0.00 | 0.00 | 0.00 | 69 | 1016.0 |
| 20260502034602 | 48 | 71 | 0.0 | 1.7 | 0.00 | 0.00 | 0.00 | 67 | 1016.0 |
| 20260502033056 | 48 | 0 | 0.0 | 1.7 | 0.00 | 0.00 | 0.00 | 65 | 1016.1 |
| 20260502031600 | 48 | 0 | 0.0 | 1.7 | 0.00 | 0.00 | 0.00 | 65 | 1016.2 |
| 20260502030110 | 49 | 0 | 0.0 | 1.7 | 0.00 | 0.00 | 0.00 | 65 | 1016.1 |
| 20260502024557 | 49 | 0 | 0.0 | 3.5 | 0.00 | 0.00 | 0.00 | 64 | 1016.1 |
| 20260502023100 | 50 | 47 | 0.9 | 3.5 | 0.00 | 0.00 | 0.00 | 64 | 1016.1 |